Regional Weather Roundup
Issued by NWS

Home | Current Version | Previous Version | Text Only | Print | Product List | Glossary On
Versions: 1 2 3 4 5 6 7 8 9 10 11 12 13 14 15 16 17 18 19 20 21 22 23 24 25 26 27 28 29 30 31 32 33 34 35 36 37 38 39 40 41 42 43 44 45 46 47 48 49 50
000
ASUS43 KMKX 301700
RWRWI

WISCONSIN REGIONAL WEATHER ROUNDUP
NATIONAL WEATHER SERVICE MILWAUKEE/SULLIVAN WI
1200 PM CDT TUE JUN 30 2015

NOTE: "FAIR" INDICATES FEW OR NO CLOUDS BELOW 12,000 FEET WITH NO
SIGNIFICANT WEATHER AND/OR OBSTRUCTIONS TO VISIBILITY.

WIZ001-002-006>008-014>016-023>028-301800-
NORTHWEST WISCONSIN

CITY           SKY/WX    TMP DP  RH WIND       PRES   REMARKS
SUPERIOR ARPT  CLOUDY    59  47  65 NE9       29.99S
ASHLAND        CLOUDY    57  49  74 NE9       30.00R
HAYWARD        CLOUDY    60  51  72 NE10      29.98S
SIREN          CLOUDY    64  54  70 E7        29.97F
CUMBERLAND     CLOUDY    63  54  72 N9        29.96S
RICE LAKE      CLOUDY    64  55  70 N7        29.97S
CHETEK         CLOUDY    65  56  72 N9        29.95S
LADYSMITH      PTSUNNY   63  53  69 N12       29.97R
EAU CLAIRE     CLOUDY    67  56  67 N7        29.93R
MENOMONIE      PTSUNNY   68  58  69 N3        29.94S
NEW RICHMOND   MOSUNNY   68  56  64 NE8       29.95S
OSCEOLA        PTSUNNY   69  58  68 NE6       29.97S
$$

WIZ003>005-009-010-017-018-301800-
NORTH CENTRAL WISCONSIN

CITY           SKY/WX    TMP DP  RH WIND       PRES   REMARKS
MANITOWISH WTR CLOUDY    54  50  88 N10       29.95S
ARBOR VITAE    CLOUDY    57  52  84 N12       29.95R
WOODRUFF       CLOUDY    57  52  84 N12       29.95R
RHINELANDER    CLOUDY    59  51  75 N10       29.94R
EAGLE RIVER    CLOUDY    54  49  83 NW12G18   29.94R
LAND O LAKES   CLOUDY    52  49  89 N12G20    29.96R
PHILLIPS       CLOUDY    58  51  76 N8        29.95S
TOMAHAWK       CLOUDY    59  50  71 NW8       29.93S
MEDFORD        CLOUDY    63  53  70 N10       29.92S
MERRILL        CLOUDY    63  53  71 N15       29.92R
$$

WIZ029-030-035-036-043>047-301800-
CENTRAL WISCONSIN

CITY           SKY/WX    TMP DP  RH WIND       PRES   REMARKS
WAUSAU         PTSUNNY   69  53  56 N8        29.88R
MOSINEE        NOT AVBL
MARSHFIELD     PTSUNNY   69  54  58 N12       29.90S
STEVENS POINT  PTSUNNY   68  55  63 NW13      29.88S
WAUPACA        PTSUNNY   72  57  59 N8        29.86S
WAUTOMA        NOT AVBL
WISC RAPIDS    MOSUNNY   72  55  55 N9G20     29.90R
CAMP DOUGLAS   NOT AVBL
$$

WIZ011>013-019>022-031-037>040-048>050-301800-
NORTHEAST WISCONSIN

CITY           SKY/WX    TMP DP  RH WIND       PRES   REMARKS
ANTIGO         CLOUDY    60  54  78 N13       29.90S
SHAWANO        CLOUDY    67  56  67 N9G17     29.86S
OCONTO         CLOUDY    63  55  77 N8        29.85R
STURGEON BAY   CLOUDY    57  52  82 N13       29.87R
GREEN BAY      CLOUDY    68  57  68 N10G18    29.85R
MANITOWOC      NOT AVBL
APPLETON       PTSUNNY   66  55  68 N10G17    29.86R
CLINTONVILLE   CLOUDY    68  54  60 N8        29.86S
OSHKOSH        CLOUDY    69  58  67 NW10      29.84S
$$

WIZ032>034-041-042-053>061-301800-
SOUTHWEST WISCONSIN

CITY           SKY/WX    TMP DP  RH WIND       PRES   REMARKS
LA CROSSE      CLOUDY    68  60  75 W9        29.91S
SPARTA         CLOUDY    68  58  70 N6        29.90F
VIROQUA        CLOUDY    66  60  82 N8        29.92R
BOSCOBEL       CLOUDY    70  60  70 VRB5      29.90R
PRAIRIE DU CHI PTSUNNY   71  61  71 NW7       29.89S
PLATTEVILLE    MOSUNNY   69  63  80 N8        29.88S
$$

WIZ056-057-062-063-064-067-068-301800-
SOUTH CENTRAL WISCONSIN

CITY           SKY/WX    TMP DP  RH WIND       PRES   REMARKS
REEDSBURG      CLOUDY    68  60  75 NW6       29.88R
BARABOO/DELLS  CLOUDY    69  58  68 NW8       29.88R
LONE ROCK      NOT AVBL
MINERAL POINT  CLOUDY    66  61  82 N9        29.89S
MADISON        PTSUNNY   71  59  65 N10       29.86S
MIDDLETON      CLOUDY    68  59  72 N9        29.88S
WATERTOWN      PTSUNNY   68  64  88 N10       29.85R
MONROE         CLOUDY    66  61  82 N9        29.87F
JANESVILLE     PTSUNNY   70  63  78 NW14      29.85S
$$

WIZ051-052-058>065-066-070>072-301800-
SOUTHEAST WISCONSIN

CITY           SKY/WX    TMP DP  RH WIND       PRES   REMARKS
MILWAUKEE      CLOUDY    71  58  63 NW13G22   29.81S
WAUKESHA       NOT AVBL
MILWAUKEE/TIMM PTSUNNY   72  57  60 NW14      29.82S
RACINE         CLOUDY    71  59  65 NW12      29.83R
BURLINGTON     PTSUNNY   68  59  72 N14G20    29.83S
KENOSHA        CLOUDY    71  60  68 NW12      29.83R
FOND DU LAC    CLOUDY    69  58  67 N12       29.85R
SHEBOYGAN      CLOUDY    69  59  70 N10       29.82R
WEST BEND      CLOUDY    70  57  64 N13G20    29.83R
JUNEAU         CLOUDY    67  60  77 NW8       29.87R
$$

LSZ147-162-301800-
LAKE SUPERIOR

STATION/POSITION TIME  TEMP    WIND        PRES    WAVE
                       AIR SEA DIR/SP/G            HT/PER
                 (UTC) (F)     (DEG/KT/KT) (MB)    (FT/S)
W MID LAKE BUOY  1550   43 38   30/ 10/ 10 1016.0R   1
DEVILS ISLAND    1600   53      70/ 12/ 15 1016.2R
SAXON HARBOR     1640   54      40/ 10/ 12 1015.6R
$$

LMZ867-665-643>646-301800-
LAKE MICHIGAN

STATION/POSITION TIME  TEMP    WIND        PRES    WAVE
                       AIR SEA DIR/SP/G            HT/PER
                 (UTC) (F)     (DEG/KT/KT) (MB)    (FT/S)
CHAMBERS ISLAND  1600   58     340/ 13/ 15 1010.8S
N MID LAKE BUOY  1550   52 49  330/ 14/ 16 1010.1R   2/ 3
NORTHPORT PIER   1600   56     340/ 18/ 21 1010.5S
SISTER BAY       1614   56     360/ 16/ 22   N/A
ALGOMA LAKESHORE 1610           20/ 14/ 21   N/A
KEWAUNEE LAKESHO 1600   61      10/  8/ 14 1009.5R
SHEBOYGAN LAKESH 1600   59      10/ 14/ 15 1009.7R
PORT WASHINGTON  1640   64      30/  8/ 12 1010.2R
ATWATER BUOY     1600   66 59  310/ 12/ 14 1010.7R
MILWAUKEE LAKESH 1600   69     320/ 10/ 14   N/A
KENOSHA   LAKESH 1600   68     310/ 11/ 13 1009.5R
$$

TC  - TEMPERATURE IN CELSIUS
VSB - VISIBILITY IN STATUTE MILES
WCI - WIND CHILL INDEX
HX  - HEAT INDEX




USA.gov is the U.S. government's official web portal to all federal, state and local government web resources and services.